Chicago Executive, IL

9:33 PM CDT on April 25, 2017 (GMT -0500)
Chicago Executive

Weather History for KPWK - October, 2014

Change the Weather History Date:

Monday, October 20, 2014

  Actual Average Record
Temperature  
Mean Temperature 57 °F 51 °F  
Max Temperature 66 °F 60 °F 84 °F (2003)
Min Temperature 48 °F 41 °F 32 °F (2002)
Degree Days  
Heating Degree Days 8 14  
Month to date heating degree days 223 228  
Since 1 July heating degree days 342 340  
Cooling Degree Days 0 0  
Month to date cooling degree days 4 11  
Year to date cooling degree days 780 789  
Growing Degree Days 6 (Base 50)    
Moisture  
Dew Point 45 °F    
Average Humidity 69    
Maximum Humidity 86    
Minimum Humidity 50    
Precipitation  
Precipitation 0.01 in 0.09 in 0.27 in (2008)
Month to date precipitation 3.42 1.95  
Year to date precipitation 30.85 27.64  
Sea Level Pressure  
Sea Level Pressure 29.89 in    
Wind  
Wind Speed 8 mph (NW)    
Max Wind Speed 16 mph    
Max Gust Speed 23 mph    
Visibility 10 miles    
Events Rain , Thunderstorm    
T = Trace of Precipitation, MM = Missing Value Source: NWS Daily Summary

Daily Weather History Graph

Daily Weather History Graph

Search for Another Location

Airport or City:

Trip Planner

Search our weather history database for the weather conditions in past years. The results will help you decide how hot, cold, wet, or windy it might be!

Date:

Astronomy

Oct. 20, 2014 Rise Set
Actual Time 7:09 AM CDT 6:02 PM CDT
Civil Twilight 6:41 AM CDT 6:30 PM CDT
Nautical Twilight 6:09 AM CDT 7:02 PM CDT
Astronomical Twilight 5:36 AM CDT 7:35 PM CDT
Moon 3:54 AM CDT (10/20) 4:27 PM CDT (10/20)
Length of Visible Light 11h 48m
Length of Day
10h 52m
Waning Crescent, 10% of the Moon is Illuminated
Oct 20
Waning Crescent
Oct 23
New
Oct 30
First Quarter
Nov 6
Full
Nov 14
Last Quarter

Hourly Weather History & Observations

Time (CDT) Temp. Dew Point Humidity Pressure Visibility Wind Dir Wind Speed Gust Speed Precip Events Conditions
12:52 AM 54.0 °F 43.0 °F 66% 29.90 in 10.0 mi SSW 10.4 mph - N/A   Clear
1:52 AM 53.1 °F 43.0 °F 69% 29.87 in 10.0 mi SSW 9.2 mph - N/A   Clear
2:52 AM 52.0 °F 44.1 °F 74% 29.86 in 10.0 mi SSW 8.1 mph - N/A   Clear
3:52 AM 51.1 °F 43.0 °F 74% 29.84 in 10.0 mi SSW 6.9 mph - N/A   Clear
4:52 AM 51.1 °F 43.0 °F 74% 29.82 in 10.0 mi SSW 5.8 mph - N/A   Partly Cloudy
5:26 AM 50.0 °F 44.1 °F 80% 29.81 in 9.0 mi SSW 4.6 mph - 0.01 in Rain , Thunderstorm Light Thunderstorms and Rain
5:41 AM 50.0 °F 44.1 °F 80% 29.81 in 10.0 mi SSW 5.8 mph - 0.01 in Thunderstorm Mostly Cloudy
5:52 AM 50.0 °F 44.1 °F 80% 29.81 in 10.0 mi SSW 5.8 mph - 0.01 in   Partly Cloudy
6:52 AM 48.9 °F 43.0 °F 80% 29.81 in 10.0 mi WSW 4.6 mph - N/A   Clear
7:52 AM 48.0 °F 44.1 °F 86% 29.82 in 10.0 mi West 3.5 mph - N/A   Clear
8:52 AM 52.0 °F 45.0 °F 77% 29.84 in 10.0 mi WNW 6.9 mph - N/A   Clear
9:52 AM 55.9 °F 46.0 °F 69% 29.86 in 10.0 mi NW 8.1 mph - N/A   Partly Cloudy
10:52 AM 59.0 °F 46.9 °F 64% 29.86 in 10.0 mi NNW 9.2 mph - N/A   Mostly Cloudy
11:52 AM 61.0 °F 46.9 °F 60% 29.86 in 10.0 mi NW 8.1 mph - N/A   Mostly Cloudy
12:52 PM 64.9 °F 48.0 °F 54% 29.85 in 10.0 mi NW 10.4 mph - N/A   Partly Cloudy
1:52 PM 63.0 °F 46.0 °F 54% 29.85 in 10.0 mi NW 13.8 mph 20.7 mph N/A   Mostly Cloudy
2:52 PM 64.9 °F 46.0 °F 50% 29.86 in 10.0 mi NW 16.1 mph - N/A   Scattered Clouds
3:15 PM 59.0 °F 48.0 °F 67% 29.87 in 10.0 mi ENE 10.4 mph - N/A   Overcast
3:52 PM 57.0 °F 46.9 °F 69% 29.90 in 10.0 mi NNE 11.5 mph - N/A   Overcast
4:52 PM 55.9 °F 46.0 °F 69% 29.93 in 10.0 mi NNE 6.9 mph - N/A   Overcast
5:52 PM 55.9 °F 45.0 °F 67% 29.96 in 10.0 mi NE 3.5 mph - N/A   Mostly Cloudy
6:52 PM 55.0 °F 46.0 °F 72% 29.99 in 10.0 mi North 11.5 mph - N/A   Overcast
7:52 PM 54.0 °F 42.1 °F 64% 29.99 in 10.0 mi North 9.2 mph - N/A   Overcast
8:52 PM 54.0 °F 42.1 °F 64% 30.01 in 10.0 mi North 6.9 mph - N/A   Overcast
9:52 PM 54.0 °F 42.1 °F 64% 30.02 in 10.0 mi NNW 8.1 mph - N/A   Overcast
10:52 PM 54.0 °F 42.1 °F 64% 30.02 in 10.0 mi North 6.9 mph - N/A   Overcast
11:52 PM 53.1 °F 42.1 °F 66% 30.02 in 10.0 mi North 5.8 mph - N/A   Overcast